This is the latest recevied weather packets stored in our database for station/object KW4UJ. If no packets are shown the sender has not sent any weather packets the latest 10 day(s).
| Time | Temp. | Humidity | Pressure | Rain* | Wind** | Luminosity | Snow |
|---|---|---|---|---|---|---|---|
| 1777334434 | 17.22° C | 57% | 1022.9 hPa | 0 mm | - | 1 W/m² | - |
| 1777334131 | 17.22° C | 56% | 1022.8 hPa | 0 mm | - | 2 W/m² | - |
| 1777333830 | 17.22° C | 55% | 1022.9 hPa | 0 mm | - | 4 W/m² | - |
| 1777333527 | 17.78° C | 52% | 1022.7 hPa | 0 mm | - | 6 W/m² | - |
| 1777333224 | 17.78° C | 50% | 1023 hPa | 0 mm | - | 8 W/m² | - |
| 1777332922 | 17.78° C | 50% | 1022.7 hPa | 0 mm | - | 11 W/m² | - |
| 1777332620 | 18.33° C | 50% | 1022.8 hPa | 0 mm | - | 15 W/m² | - |
| 1777332316 | 18.33° C | 49% | 1022.7 hPa | 0 mm | - | 19 W/m² | - |
| 1777332013 | 18.89° C | 48% | 1022.7 hPa | 0 mm | - | 25 W/m² | - |
| 1777331711 | 18.89° C | 49% | 1022.4 hPa | 0 mm | - | 29 W/m² | - |
| 1777331407 | 18.89° C | 48% | 1022.3 hPa | 0 mm | - | 33 W/m² | - |
| 1777331105 | 18.89° C | 47% | 1022.4 hPa | 0 mm | - | 34 W/m² | - |
| 1777330802 | 19.44° C | 47% | 1022.3 hPa | 0 mm | - | 36 W/m² | - |
| 1777330499 | 18.89° C | 47% | 1022.3 hPa | 0 mm | - | 37 W/m² | - |
| 1777330196 | 19.44° C | 47% | 1022.3 hPa | 0 mm | - | 39 W/m² | - |
| 1777329894 | 19.44° C | 47% | 1022.2 hPa | 0 mm | - | 41 W/m² | - |
| 1777329593 | 19.44° C | 47% | 1022 hPa | 0 mm | - | 42 W/m² | - |
| 1777329290 | 19.44° C | 46% | 1022.2 hPa | 0 mm | - | 44 W/m² | - |
| 1777328988 | 20° C | 44% | 1022.3 hPa | 0 mm | - | 46 W/m² | - |
| 1777328686 | 20° C | 44% | 1022.2 hPa | 0 mm | - | 137 W/m² | - |
| 1777328383 | 20° C | 44% | 1022.2 hPa | 0 mm | - | 152 W/m² | - |
| 1777328082 | 20° C | 44% | 1022.5 hPa | 0 mm | - | 166 W/m² | - |
| 1777327779 | 20° C | 44% | 1022.3 hPa | 0 mm | - | 186 W/m² | - |
| 1777327477 | 20° C | 45% | 1022.2 hPa | 0 mm | - | 191 W/m² | - |
| 1777327174 | 20° C | 44% | 1022.1 hPa | 0 mm | - | 206 W/m² | - |
* Rain latest hour (hover to see other rain measurements)
** Current wind speed in m/s (hover to see current wind gust speed)